Wind_Speed
5 5 5 5 5 5 4 4 3 1 1 2 3 4 5 6 7 7 8 8 8 8 8 9 9 9 10 10 11 11 12 12 13 13 14 14 14 14 14 14 15 15 15 15 16 16 16 17 17
5 5 5 6 5 5 5 4 3 2 1 1 3 4 5 6 7 8 8 8 8 9 9 9 9 9 9 10 10 11 11 11 12 12 13 13 13 13 13 13 13 14 14 14 15 15 15 16 16
4 5 5 5 5 4 4 3 3 2 0 1 3 4 5 6 7 7 8 8 8 9 9 9 9 10 10 10 10 10 10 11 11 11 11 11 11 12 12 12 13 13 14 14 14 15 15 15 16
4 4 4 4 4 3 3 3 2 2 1 1 2 4 4 4 6 7 8 8 8 8 9 9 10 10 10 10 10 10 10 11 11 11 11 11 12 12 12 13 13 13 14 14 15 15 15 15 16
3 3 3 3 3 2 2 2 2 1 1 2 3 3 4 4 5 6 7 8 8 9 9 10 10 10 10 10 11 11 11 11 11 12 12 12 12 12 13 13 13 14 14 15 15 15 15 16 16
4 3 3 3 2 2 1 0 0 1 1 2 3 4 5 5 6 7 8 9 9 9 10 10 11 11 11 12 12 12 13 13 13 13 13 14 14 14 14 14 15 15 15 15 15 16 16 16 16
5 4 4 4 3 3 2 2 2 2 2 3 4 5 6 6 7 7 8 9 10 10 11 12 13 13 13 13 14 14 14 14 14 15 15 16 16 16 16 16 16 17 17 17 17 17 17 17 18
7 6 6 5 5 5 4 4 4 4 4 4 5 7 8 8 8 9 9 10 11 12 13 14 14 15 15 16 16 16 17 17 17 18 18 18 19 19 19 19 19 19 19 19 19 19 19 19 19
9 9 8 7 7 7 7 7 6 6 7 7 8 9 10 10 11 11 11 12 12 13 15 16 16 17 18 18 19 20 20 20 21 21 21 22 22 22 22 22 22 22 22 22 22 22 22 22 22
11 11 10 10 9 9 9 9 9 9 9 9 11 11 12 12 12 13 13 14 15 15 16 18 19 19 20 21 22 23 23 24 24 24 25 25 25 26 26 26 26 26 26 26 26 26 26 26 26
13 13 13 12 12 12 12 12 11 11 12 12 13 14 14 14 15 15 16 16 17 17 18 19 20 21 22 23 24 25 26 26 27 27 28 28 28 29 29 29 30 30 30 30 30 30 30 30 30
15 15 15 14 14 14 15 15 14 14 14 15 15 16 16 17 17 17 18 18 19 19 20 21 22 23 24 25 26 27 28 28 29 29 30 31 31 31 32 32 33 33 33 34 34 34 34 34 34
17 17 17 16 16 16 17 17 17 17 16 17 17 18 18 19 19 19 20 20 20 21 21 22 23 24 25 26 27 28 29 30 30 31 31 32 33 33 34 34 35 35 36 36 36 37 37 37 37
19 19 19 18 18 18 19 19 19 19 19 19 19 19 20 20 20 21 21 21 22 22 23 23 24 25 26 27 27 28 29 30 30 31 32 33 34 34 35 36 36 37 38 38 38 39 40 40 41
20 21 21 20 19 19 20 21 20 21 21 21 21 21 21 21 22 22 22 23 23 23 24 24 24 25 26 27 27 28 29 29 30 31 32 33 34 34 35 36 37 38 39 39 40 41 41 42 43
21 21 22 21 21 21 22 23 22 22 22 23 23 23 23 23 23 23 23 23 23 24 24 24 24 25 26 26 27 28 29 30 31 31 32 33 34 35 35 36 37 38 39 40 41 42 43 44 45
21 22 22 22 22 22 23 24 23 23 23 23 23 24 24 24 24 24 23 23 23 23 24 24 24 25 26 26 27 28 29 30 30 31 32 33 34 34 35 36 37 38 39 40 41 42 44 44 46
21 21 22 22 21 22 22 23 24 23 24 24 24 24 24 24 24 23 23 23 23 24 24 25 25 26 26 27 27 28 28 29 30 31 32 33 33 34 35 36 37 39 39 40 42 43 44 45 46
21 21 21 22 21 21 22 23 23 23 23 24 24 24 24 24 23 24 24 24 24 24 25 25 26 26 26 27 27 28 29 30 31 32 33 34 35 36 37 37 38 40 40 41 43 44 45 46 48
21 20 20 21 20 21 21 22 22 23 23 23 23 23 23 23 23 24 24 24 25 25 25 25 26 27 27 28 28 29 30 31 33 34 35 36 37 38 39 40 40 41 42 43 45 46 47 48 50
20 20 20 19 19 19 20 21 21 22 22 22 22 22 22 23 23 23 24 25 26 26 26 26 27 28 28 29 30 31 32 33 34 35 36 37 38 39 40 41 42 43 44 45 47 48 49 50 52
20 19 19 19 19 18 18 19 19 20 20 20 21 21 22 23 23 24 25 26 26 27 27 28 29 29 30 31 32 33 34 35 36 37 38 39 40 41 42 43 44 45 46 47 49 51 52 54 55
19 19 18 18 18 17 17 18 17 18 19 19 20 21 22 23 24 25 26 27 27 28 29 30 30 30 31 32 33 34 35 36 37 38 39 40 41 42 43 45 46 47 49 51 53 55 57 59 61
19 19 18 18 18 17 17 17 17 17 18 19 20 21 22 23 25 26 27 28 29 30 30 31 31 32 32 33 34 35 36 37 38 39 40 42 43 44 46 47 49 51 53 55 57 60 62 64 66
19 18 18 18 17 17 17 17 17 18 19 20 21 22 23 24 25 27 28 30 31 31 32 32 32 33 34 35 36 37 38 39 40 41 42 44 45 47 49 51 53 56 58 61 63 65 68 70 72
19 18 18 18 17 17 17 18 18 19 20 21 22 24 25 26 27 29 30 32 32 32 33 33 34 35 36 37 38 39 40 41 42 43 45 47 49 51 53 56 58 61 64 66 69 71 73 75 77
19 18 19 19 19 18 18 19 20 21 22 23 24 25 26 28 29 30 32 33 33 34 34 35 36 37 38 39 40 41 42 43 45 47 49 51 53 55 58 61 63 66 69 71 73 75 77 79 81
19 19 19 20 20 20 19 19 21 22 23 24 25 26 28 29 31 32 33 34 35 36 36 37 38 39 40 41 43 44 45 47 48 50 53 55 57 60 62 65 68 70 73 75 77 79 81 82 83
20 20 21 22 22 22 21 21 22 24 25 26 27 28 30 32 33 34 35 36 37 38 38 39 40 41 43 44 46 47 48 50 52 55 57 59 62 64 67 69 72 74 77 79 81 82 83 84 84
21 21 22 23 23 23 23 23 24 26 27 28 29 30 32 34 35 36 37 38 39 40 40 41 43 44 45 47 48 50 52 54 56 59 61 63 66 68 71 73 76 78 80 81 82 83 83 83 82
Wind_Direction
108 109 109 108 114 113 116 121 132 150 200 255 267 267 265 263 262 262 261 260 259 258 259 260 261 263 266 268 269 272 274 275 276 276 276 276 275 273 272 270 269 267 265 263 262 261 260 259 258
114 116 114 115 117 119 117 119 127 139 178 266 273 271 267 266 267 266 266 264 263 263 263 265 266 267 269 270 272 274 276 277 277 277 278 277 276 275 274 273 271 269 268 267 266 264 263 262 261
123 121 123 124 127 127 127 124 124 125 158 279 280 279 274 270 268 268 269 269 268 268 268 269 269 270 272 273 274 276 277 278 278 278 277 276 276 276 276 275 273 272 270 270 268 267 266 265 265
131 131 134 134 136 134 128 121 110 98 56 321 299 290 285 278 272 269 270 272 271 271 272 274 273 273 274 274 274 275 276 277 277 276 275 275 275 275 276 276 275 274 273 272 271 270 269 268 268
156 154 157 156 152 145 132 117 97 64 15 338 315 301 295 287 278 273 271 272 273 273 274 275 275 274 274 274 274 274 275 275 275 274 274 274 274 275 275 276 275 275 275 275 274 273 272 271 270
187 188 191 192 186 178 174 171 358 334 322 314 307 301 300 292 284 279 276 275 275 275 274 274 274 274 274 274 273 273 274 273 273 273 274 274 274 274 275 275 275 276 276 275 275 274 273 272 272
213 214 217 222 224 225 234 251 269 285 292 293 294 293 293 292 287 283 281 279 279 277 275 273 273 274 274 274 273 273 273 272 273 273 273 273 273 273 273 274 274 275 275 275 275 274 274 273 273
229 231 232 235 239 242 247 254 261 270 281 286 283 282 285 289 288 286 284 281 279 278 277 275 274 274 274 274 273 272 272 272 273 273 273 273 273 273 273 273 274 274 274 274 274 275 275 274 274
236 237 239 242 245 249 254 257 260 266 274 281 279 278 283 285 288 289 287 284 282 279 278 276 275 274 274 274 273 272 272 272 272 272 272 273 273 273 273 273 274 274 274 274 274 274 275 275 275
240 241 245 247 250 253 257 260 264 267 271 274 275 278 283 286 288 291 291 288 285 283 280 278 276 275 274 274 273 273 272 272 272 272 273 273 273 273 273 273 273 273 273 273 274 274 274 275 275
245 247 249 250 252 256 260 263 265 268 269 271 276 280 282 285 288 289 290 288 287 285 283 281 279 277 276 275 274 274 274 273 273 273 273 273 273 273 274 274 274 273 273 273 274 274 274 275 275
248 251 253 254 254 257 261 264 266 268 271 274 277 280 284 286 288 290 290 290 289 287 285 283 281 279 278 277 276 276 276 275 275 275 275 275 274 274 274 274 274 274 274 273 274 274 274 274 275
251 253 256 258 259 260 262 264 267 270 272 274 276 279 282 284 287 289 290 291 291 290 288 285 283 281 280 279 278 278 278 277 277 277 276 276 276 275 275 275 275 275 274 274 274 274 274 274 274
254 256 258 261 263 264 265 266 268 270 273 275 277 279 281 283 285 287 289 291 291 291 290 289 286 284 283 282 281 280 280 279 279 278 278 278 277 277 277 276 276 275 275 275 275 275 275 274 274
257 258 260 262 264 266 268 269 270 272 274 276 277 279 281 283 285 287 289 291 292 292 292 291 290 288 287 285 284 283 283 282 281 281 280 280 279 279 279 279 278 278 277 277 276 276 275 275 274
260 261 262 263 265 267 270 272 273 274 275 277 278 280 282 284 286 288 290 292 292 293 293 292 292 291 290 289 287 286 285 285 284 283 283 282 282 282 281 281 280 280 279 278 277 276 275 275 274
262 263 265 265 266 268 270 273 274 275 276 278 280 282 283 286 288 290 291 292 293 293 294 294 293 293 292 291 290 289 288 288 287 287 286 286 285 284 284 283 282 281 281 281 279 279 278 277 276
262 264 266 268 269 270 271 272 275 276 278 279 282 284 286 288 289 291 292 293 293 294 294 295 294 294 293 292 292 291 290 290 289 289 288 287 287 286 286 285 284 284 283 282 281 281 280 279 278
263 264 266 269 271 273 273 274 275 277 279 281 283 285 287 288 290 292 292 293 293 294 295 295 294 294 293 293 293 292 292 292 291 290 290 290 289 289 288 287 286 286 285 285 284 283 282 281 280
262 264 267 270 271 273 274 275 277 278 279 281 283 284 286 289 290 291 292 293 294 295 296 296 295 294 294 294 293 293 293 293 293 292 292 292 292 291 290 289 288 288 288 287 286 285 285 284 283
261 264 267 270 271 272 274 275 277 278 279 281 282 284 287 289 290 291 292 294 296 296 297 297 296 295 295 295 295 295 295 295 294 294 293 293 293 292 292 291 291 290 290 289 289 288 288 287 287
260 263 267 270 272 273 274 275 277 278 279 280 282 285 287 289 290 291 293 294 296 297 297 297 296 296 296 296 296 296 296 296 295 295 295 295 294 294 293 293 293 293 292 291 291 290 290 289 289
259 262 266 268 271 272 273 274 275 277 278 280 283 285 287 289 290 291 293 294 296 297 297 296 296 296 296 296 296 296 296 296 296 295 295 295 295 295 294 294 294 293 293 292 292 291 291 290 290
258 261 264 266 269 270 271 274 276 277 279 281 284 286 288 289 291 292 293 295 296 297 297 296 295 295 295 296 296 296 296 296 296 295 295 295 295 295 295 295 295 294 294 293 292 292 291 291 290
256 260 263 265 267 270 272 274 277 278 280 283 285 287 289 290 291 292 294 295 296 296 296 295 294 294 295 295 296 296 296 296 296 296 296 296 296 296 296 296 295 295 294 294 293 293 292 291 290
255 259 262 266 268 270 272 275 278 280 283 285 287 289 290 291 292 293 295 296 296 296 296 295 294 294 295 295 296 296 297 297 296 296 296 296 296 296 296 296 296 296 296 295 295 294 293 292 291
254 257 262 267 270 272 274 277 279 282 285 287 288 290 291 293 294 295 296 296 296 296 295 295 295 295 295 295 296 297 297 297 297 297 297 297 297 297 297 297 297 297 296 296 295 295 294 292 292
254 258 264 268 272 274 275 278 282 285 287 289 290 291 292 294 295 295 296 296 295 295 295 295 295 296 296 296 297 297 298 299 299 299 299 299 299 298 298 299 299 298 298 297 297 296 295 294 293
256 260 265 269 273 276 279 281 284 286 287 289 290 291 293 294 295 295 295 295 295 295 295 296 296 297 297 298 298 299 300 300 300 301 301 301 300 300 300 300 300 300 300 299 298 297 296 295 294
258 263 267 270 274 277 280 284 285 286 287 288 290 292 293 294 295 296 296 296 296 296 296 296 297 298 298 299 300 300 301 301 302 302 302 302 302 302 302 302 302 302 301 301 300 298 297 296 295
Height
5880 5880 5880 5881 5882 5882 5881 5881 5881 5881 5882 5882 5882 5882 5882 5882 5883 5885 5882 5880 5880 5880 5879 5879 5879 5879 5879 5879 5879 5878 5878 5877 5877 5876 5876 5876 5875 5875 5874 5874 5873 5872 5872 5872 5872 5871 5871 5871 5871
5880 5880 5881 5882 5882 5881 5882 5881 5881 5881 5881 5881 5881 5881 5881 5881 5881 5881 5880 5879 5879 5879 5878 5878 5878 5878 5877 5877 5877 5877 5876 5876 5875 5875 5874 5874 5873 5872 5872 5871 5871 5870 5869 5869 5869 5869 5868 5868 5868
5881 5881 5882 5882 5881 5882 5882 5881 5881 5881 5880 5880 5881 5880 5881 5880 5880 5879 5879 5878 5878 5877 5877 5877 5877 5876 5876 5876 5875 5875 5874 5874 5873 5873 5872 5872 5871 5870 5870 5869 5868 5868 5867 5867 5866 5866 5866 5865 5865
5881 5882 5883 5883 5882 5882 5881 5881 5880 5880 5880 5880 5880 5880 5879 5879 5879 5878 5877 5877 5877 5876 5876 5875 5875 5875 5874 5874 5873 5873 5873 5872 5872 5871 5870 5870 5869 5868 5868 5867 5866 5866 5865 5864 5864 5863 5863 5862 5862
5881 5882 5882 5882 5882 5882 5881 5881 5881 5880 5880 5879 5879 5879 5878 5878 5877 5877 5876 5876 5875 5875 5874 5874 5873 5873 5872 5872 5871 5871 5870 5870 5869 5869 5868 5868 5867 5866 5865 5865 5864 5863 5862 5862 5861 5860 5860 5859 5859
5881 5882 5882 5882 5882 5881 5881 5881 5880 5880 5880 5879 5878 5878 5877 5877 5876 5875 5875 5874 5874 5873 5872 5872 5871 5871 5870 5870 5869 5869 5868 5868 5867 5866 5866 5865 5864 5864 5863 5862 5861 5861 5860 5859 5858 5857 5857 5856 5856
5881 5881 5881 5881 5881 5881 5881 5880 5880 5879 5879 5878 5877 5877 5876 5875 5874 5874 5873 5873 5872 5871 5870 5870 5869 5868 5868 5867 5867 5866 5865 5865 5864 5864 5863 5862 5862 5861 5860 5859 5858 5858 5857 5856 5855 5854 5853 5853 5852
5879 5881 5880 5880 5880 5880 5880 5879 5879 5878 5878 5877 5876 5876 5875 5874 5873 5872 5872 5871 5870 5869 5868 5867 5867 5866 5865 5864 5864 5863 5862 5862 5861 5861 5860 5859 5858 5857 5856 5856 5855 5854 5853 5852 5851 5850 5850 5849 5848
5878 5879 5878 5878 5878 5878 5878 5878 5877 5877 5876 5875 5875 5874 5873 5872 5871 5870 5870 5869 5868 5867 5866 5865 5864 5863 5862 5861 5860 5859 5859 5858 5857 5856 5856 5855 5854 5853 5852 5851 5851 5850 5849 5848 5847 5846 5845 5845 5844
5875 5876 5876 5877 5877 5876 5876 5876 5875 5875 5874 5873 5872 5872 5871 5870 5869 5868 5867 5866 5865 5864 5863 5862 5861 5859 5858 5857 5856 5855 5854 5854 5853 5852 5851 5850 5849 5848 5847 5846 5846 5845 5844 5843 5842 5841 5840 5839 5839
5872 5873 5874 5874 5874 5874 5873 5873 5873 5872 5872 5871 5870 5869 5868 5867 5866 5865 5864 5863 5862 5861 5860 5858 5857 5856 5854 5853 5852 5851 5850 5849 5848 5847 5846 5845 5844 5843 5842 5841 5840 5839 5838 5837 5836 5835 5834 5833 5832
5869 5869 5870 5871 5871 5871 5870 5870 5870 5869 5869 5868 5867 5866 5865 5864 5863 5862 5860 5859 5858 5857 5856 5854 5853 5851 5850 5848 5847 5846 5845 5843 5842 5841 5840 5839 5838 5837 5835 5834 5833 5832 5831 5830 5829 5828 5827 5826 5825
5866 5866 5866 5867 5867 5867 5867 5866 5866 5866 5865 5864 5863 5862 5861 5860 5859 5858 5856 5855 5854 5852 5851 5849 5848 5846 5845 5843 5842 5840 5839 5838 5836 5835 5833 5832 5831 5830 5828 5827 5826 5825 5824 5823 5822 5821 5820 5818 5817
5862 5862 5862 5863 5863 5863 5863 5862 5862 5861 5861 5860 5859 5858 5857 5856 5855 5854 5852 5850 5849 5847 5846 5844 5843 5841 5839 5838 5836 5834 5833 5831 5830 5828 5827 5825 5824 5822 5821 5820 5818 5817 5816 5815 5813 5812 5811 5810 5808
5858 5858 5858 5859 5859 5859 5859 5858 5858 5857 5856 5855 5855 5854 5853 5852 5850 5849 5847 5846 5844 5842 5840 5839 5837 5835 5834 5832 5830 5828 5827 5825 5823 5822 5820 5818 5817 5815 5813 5812 5810 5808 5807 5806 5804 5803 5801 5800 5798
5853 5854 5854 5854 5854 5854 5855 5853 5853 5852 5851 5850 5850 5849 5848 5847 5845 5844 5842 5840 5839 5837 5835 5833 5832 5830 5828 5826 5824 5822 5820 5818 5817 5815 5813 5811 5809 5807 5806 5804 5802 5799 5798 5796 5795 5793 5791 5789 5788
5849 5849 5848 5849 5849 5849 5849 5848 5847 5847 5846 5845 5844 5843 5843 5841 5840 5838 5837 5835 5833 5831 5830 5828 5826 5824 5822 5820 5818 5816 5814 5812 5810 5808 5806 5804 5801 5799 5797 5795 5793 5790 5789 5787 5785 5783 5781 5779 5777
5844 5844 5843 5844 5844 5844 5843 5842 5842 5841 5840 5839 5839 5838 5837 5836 5834 5833 5831 5830 5828 5826 5824 5822 5820 5818 5816 5814 5812 5810 5807 5805 5803 5800 5798 5796 5794 5791 5789 5787 5784 5781 5779 5777 5774 5772 5770 5768 5765
5839 5839 5839 5839 5839 5839 5838 5837 5836 5835 5835 5834 5833 5832 5831 5830 5829 5827 5826 5824 5823 5821 5819 5817 5815 5812 5810 5808 5806 5803 5801 5798 5796 5793 5790 5788 5785 5783 5780 5777 5775 5772 5770 5767 5764 5761 5759 5756 5753
5834 5834 5834 5834 5834 5833 5833 5832 5831 5830 5829 5828 5828 5827 5826 5825 5823 5822 5820 5819 5817 5815 5813 5811 5809 5806 5804 5802 5799 5797 5794 5791 5788 5785 5782 5780 5777 5774 5771 5768 5765 5762 5759 5756 5753 5750 5747 5744 5741
5829 5829 5829 5829 5829 5828 5828 5827 5826 5825 5824 5823 5822 5821 5821 5820 5818 5817 5815 5813 5811 5809 5807 5805 5803 5800 5797 5795 5792 5789 5786 5784 5781 5777 5774 5771 5767 5764 5761 5758 5755 5752 5749 5745 5742 5738 5734 5732 5728
5824 5824 5824 5824 5824 5824 5824 5823 5821 5820 5819 5818 5817 5816 5815 5814 5813 5811 5809 5807 5806 5804 5801 5799 5796 5794 5791 5788 5785 5782 5779 5776 5772 5769 5765 5762 5758 5754 5751 5748 5744 5741 5737 5733 5729 5725 5721 5717 5714
5818 5819 5819 5819 5819 5819 5818 5818 5818 5815 5814 5814 5813 5812 5810 5809 5807 5806 5804 5802 5800 5798 5795 5792 5790 5787 5784 5781 5777 5774 5771 5767 5764 5760 5756 5752 5749 5745 5741 5737 5733 5729 5725 5721 5717 5712 5707 5703 5698
5813 5814 5815 5814 5814 5815 5814 5814 5813 5811 5810 5809 5808 5807 5805 5804 5802 5800 5798 5796 5794 5791 5788 5785 5783 5780 5776 5773 5770 5766 5762 5759 5755 5751 5747 5743 5739 5734 5730 5726 5722 5717 5712 5708 5703 5697 5692 5687 5681
5809 5810 5810 5810 5810 5810 5809 5809 5809 5807 5805 5804 5803 5801 5800 5798 5796 5794 5792 5790 5787 5784 5781 5778 5775 5772 5769 5765 5761 5757 5753 5749 5745 5741 5737 5732 5728 5723 5719 5714 5709 5703 5698 5693 5687 5681 5675 5669 5662
5803 5805 5806 5806 5806 5805 5804 5804 5804 5802 5800 5799 5798 5796 5794 5792 5790 5788 5785 5783 5780 5777 5774 5770 5767 5764 5760 5756 5752 5748 5744 5740 5735 5731 5726 5721 5716 5711 5706 5700 5694 5688 5682 5675 5669 5662 5656 5648 5641
5798 5799 5800 5800 5800 5800 5799 5799 5798 5796 5795 5793 5792 5790 5788 5786 5784 5781 5778 5775 5772 5769 5766 5762 5759 5755 5751 5747 5743 5738 5734 5729 5724 5719 5714 5709 5703 5698 5692 5685 5679 5672 5664 5657 5649 5642 5634 5626 5619
5793 5794 5794 5794 5794 5794 5795 5794 5793 5791 5789 5787 5785 5783 5781 5779 5776 5773 5770 5767 5764 5761 5757 5754 5750 5746 5742 5737 5732 5728 5723 5717 5712 5707 5701 5695 5689 5682 5676 5669 5661 5653 5645 5636 5628 5620 5611 5602 5594
5788 5789 5788 5788 5788 5788 5788 5790 5786 5784 5782 5780 5778 5776 5774 5772 5769 5765 5762 5759 5755 5752 5748 5744 5740 5736 5731 5726 5721 5716 5711 5705 5699 5693 5687 5680 5673 5666 5658 5651 5642 5633 5624 5615 5605 5596 5587 5578 5569
5781 5782 5782 5783 5782 5782 5782 5785 5779 5777 5775 5773 5771 5769 5766 5763 5760 5757 5753 5750 5746 5742 5738 5734 5729 5725 5720 5715 5709 5704 5698 5692 5686 5679 5672 5664 5657 5648 5640 5631 5622 5613 5603 5592 5582 5572 5562 5553 5544